Showing default

FLOCK 4Q 17, 58283

Orbit data source: Space-Track

FLOCK 4Q 17, 58283 is a payload satellite owned by Planet (US) in SSO that was launched on Sat, 11 Nov 2023 UTC via an FALCON 9 launch vehicle from the Air Force Western Test Range (AFWTR). Payload-class satellites include a variety of spacecraft equipped with specific instruments for various scientific and technological missions. These include communications satellites like Starlink; space stations such as the ISS; scientific satellites like the Hubble; Earth observation satellites from companies like Planet Labs, Umbra, and HawkEye 360; GPS; miniature CubeSats for education and research; and military/defense satellites.

Loading next visibility...
Identifier
58283, 2023-174AD
Orbit
SSO
Country
Flag of USUS
Related business
Manufacturer
Planet
Mission
Operational Commercial Imaging
Bus & Motor
CUBESAT 3U, Unknown motor
Mass
5.7 kg wet, 5.7 kg dry
Launch date (UTC)
2023-11-11 (2 years ago)
Launch vehicle
FALCON 9
Launch site
Air Force Western Test Range (AFWTR)
Object type
Payload
Rocket body
Debris
Shape & HBR
Box + 2 Pan, 1.0 m
Radar Cross Section
0.072 m², Medium (>0.1 m² and < 1m²)

Expand to show TLE details & history
Last TLE update: 4 hours ago

TLE from 4 hours ago
0 FLOCK 4Q 17
1 58283U 23174AD  25290.97434804  .00053104  00000-0  11038-2 0  9998
2 58283  97.4040  13.1451 0005299 298.8407  61.2309 15.45472312108419
Epoch: 2025-10-17T23:23Z
TLE epoch observation values (Epoch: 2025-10-17T23:23:03.670Z)
Latitude
-0.0001°
Longitude
-4.3322°
Altitude
431.38 km
Speed
7.654 km/s
True Right ascension
00h 52m 34s
True Declination
0° 00' 00"
Sunlit
Object was in full shadow at epoch
Visualization orbit readout
Latitude
Unknown
Longitude
Unknown
Altitude
Unknown
Speed
Unknown
Apparent Right ascension
Unknown
Apparent Declination
Unknown
Sunlit
N/A
Visualization observer readout
Local Sidereal Time
22:32:29
Azimuth
Unknown
Elevation
Unknown
Doppler factor
Unknown
Orbital elements
Apogee altitude
430.529 km
Perigee altitude
423.316 km
Semi-major axis
6,805.059 km
Eccentricity
0.00053
Inclination
97.404°
RAAN
13.1451°
Arg. of periapsis
298.8407°
True anomaly
61.28414°
Mean anomaly
61.2309°
Eccentric anomaly
61.25752°
Mean motion
3.8663 °/min
Orbital period
93.11 mins
BSTAR
0.0011038
Loading maneuver chart data...
Computing Atmospheric mass density...

Documentation

Showing up to 5 results
|